Stündliche Wetter Bern

Heute, 1 Oktober, Donnerstag

Zeit Temperatur Niederschläge Wind Luftdruck Luftfeuchtigkeit
00:00 +11°C° 0 mm 1 m/S 710 mmHg 92%
01:00 +11°C° 0 mm 1 m/S 710 mmHg 92%
02:00 +11°C° 0 mm 1 m/S 709 mmHg 92%
03:00 +11°C° 0 mm 1 m/S 709 mmHg 92%
04:00 +11°C° 0 mm 1 m/S 709 mmHg 91%
05:00 +11°C° 0 mm 1 m/S 708 mmHg 91%
06:00 +11°C° 0 mm 1 m/S 708 mmHg 90%
07:00 +13°C° 0 mm 1 m/S 708 mmHg 82%
08:00 +15°C° 0 mm 1 m/S 708 mmHg 74%
09:00 +19°C° 0 mm 1 m/S 708 mmHg 66%
10:00 +18°C° 0.1 mm 2 m/S 708 mmHg 66%
11:00 +18°C° 0.1 mm 3 m/S 708 mmHg 65%
12:00 +19°C° 0.1 mm 4 m/S 708 mmHg 64%
13:00 +17°C° 0.4 mm 4 m/S 708 mmHg 73%
14:00 +15°C° 0.4 mm 4 m/S 707 mmHg 81%
15:00 +13°C° 0.4 mm 4 m/S 707 mmHg 90%
16:00 +13°C° 0.2 mm 4 m/S 707 mmHg 90%
17:00 +12°C° 0.2 mm 3 m/S 707 mmHg 91%
18:00 +12°C° 0.2 mm 3 m/S 707 mmHg 92%
19:00 +12°C° 0.1 mm 2 m/S 706 mmHg 92%
20:00 +12°C° 0.1 mm 1 m/S 706 mmHg 93%
21:00 +12°C° 0.1 mm 1 m/S 706 mmHg 93%
22:00 +12°C° 0.1 mm 1 m/S 705 mmHg 94%
23:00 +11°C° 0.1 mm 0 m/S 704 mmHg 94%

Morgen, 2 Oktober, Freitag

Zeit Temperatur Niederschläge Wind Luftdruck Luftfeuchtigkeit
00:00 +10°C° 0.1 mm 0 m/S 704 mmHg 95%
01:00 +11°C° 0.1 mm 1 m/S 703 mmHg 95%
02:00 +11°C° 0.1 mm 1 m/S 702 mmHg 95%
03:00 +10°C° 0.1 mm 2 m/S 701 mmHg 96%
04:00 +10°C° 0 mm 2 m/S 701 mmHg 95%
05:00 +10°C° 0 mm 2 m/S 700 mmHg 94%
06:00 +12°C° 0 mm 2 m/S 699 mmHg 94%
07:00 +12°C° 0 mm 2 m/S 699 mmHg 91%
08:00 +13°C° 0 mm 2 m/S 699 mmHg 88%
09:00 +14°C° 0 mm 2 m/S 699 mmHg 86%
10:00 +15°C° 0 mm 2 m/S 698 mmHg 81%
11:00 +16°C° 0 mm 3 m/S 697 mmHg 76%
12:00 +17°C° 0 mm 3 m/S 697 mmHg 72%
13:00 +17°C° 0 mm 3 m/S 696 mmHg 73%
14:00 +17°C° 0 mm 3 m/S 696 mmHg 73%
15:00 +17°C° 0 mm 3 m/S 695 mmHg 74%
16:00 +16°C° 0 mm 3 m/S 695 mmHg 77%
17:00 +15°C° 0 mm 2 m/S 695 mmHg 79%
18:00 +14°C° 0 mm 2 m/S 695 mmHg 81%
19:00 +13°C° 0 mm 2 m/S 695 mmHg 83%
20:00 +13°C° 0 mm 1 m/S 695 mmHg 84%
21:00 +12°C° 0 mm 1 m/S 695 mmHg 86%
22:00 +12°C° 0.1 mm 1 m/S 695 mmHg 87%
23:00 +12°C° 0.1 mm 1 m/S 695 mmHg 88%

übermorgen, 3 Oktober, Samstag

Zeit Temperatur Niederschläge Wind Luftdruck Luftfeuchtigkeit
00:00 +11°C° 0.1 mm 1 m/S 695 mmHg 89%
01:00 +10°C° 2.3 mm 2 m/S 695 mmHg 91%
02:00 +10°C° 2.3 mm 2 m/S 695 mmHg 94%
03:00 +9°C° 2.3 mm 2 m/S 695 mmHg 97%
04:00 +8°C° 3.8 mm 2 m/S 695 mmHg 97%
05:00 +7°C° 3.8 mm 2 m/S 696 mmHg 97%
06:00 +6°C° 3.8 mm 2 m/S 696 mmHg 97%
07:00 +6°C° 4.2 mm 2 m/S 697 mmHg 97%
08:00 +6°C° 4.2 mm 2 m/S 697 mmHg 97%
09:00 +6°C° 4.2 mm 2 m/S 698 mmHg 96%
10:00 +6°C° 0.8 mm 2 m/S 699 mmHg 95%
11:00 +7°C° 0.8 mm 2 m/S 699 mmHg 94%
12:00 +9°C° 0.8 mm 1 m/S 699 mmHg 93%
13:00 +10°C° 0 mm 1 m/S 699 mmHg 90%
14:00 +11°C° 0 mm 1 m/S 698 mmHg 87%
15:00 +12°C° 0 mm 1 m/S 698 mmHg 83%
16:00 +11°C° 0 mm 1 m/S 698 mmHg 88%
17:00 +9°C° 0 mm 1 m/S 698 mmHg 92%
18:00 +7°C° 0 mm 2 m/S 698 mmHg 96%
19:00 +7°C° 0 mm 2 m/S 698 mmHg 95%
20:00 +7°C° 0 mm 2 m/S 698 mmHg 93%
21:00 +7°C° 0 mm 2 m/S 699 mmHg 92%
22:00 +8°C° 0.2 mm 3 m/S 699 mmHg 92%
23:00 +8°C° 0.2 mm 3 m/S 699 mmHg 92%

4 Oktober, Sonntag

Zeit Temperatur Niederschläge Wind Luftdruck Luftfeuchtigkeit
00:00 +8°C° 0.2 mm 3 m/S 700 mmHg 92%
01:00 +7°C° 0.2 mm 4 m/S 700 mmHg 92%
02:00 +7°C° 0.2 mm 4 m/S 701 mmHg 93%
03:00 +7°C° 0.2 mm 5 m/S 701 mmHg 93%
04:00 +7°C° 0 mm 4 m/S 701 mmHg 92%
05:00 +6°C° 0 mm 4 m/S 702 mmHg 91%
06:00 +7°C° 0 mm 3 m/S 702 mmHg 91%
07:00 +9°C° 0 mm 3 m/S 702 mmHg 86%
08:00 +10°C° 0 mm 3 m/S 703 mmHg 81%
09:00 +13°C° 0 mm 2 m/S 703 mmHg 76%
10:00 +13°C° 0 mm 2 m/S 703 mmHg 74%
11:00 +14°C° 0 mm 2 m/S 703 mmHg 72%
12:00 +15°C° 0 mm 2 m/S 703 mmHg 69%
13:00 +14°C° 0.3 mm 1 m/S 703 mmHg 74%
14:00 +14°C° 0.3 mm 1 m/S 703 mmHg 80%
15:00 +13°C° 0.3 mm 1 m/S 703 mmHg 85%
16:00 +12°C° 0.8 mm 1 m/S 703 mmHg 89%
17:00 +11°C° 0.8 mm 1 m/S 703 mmHg 92%
18:00 +9°C° 0.8 mm 2 m/S 704 mmHg 96%
19:00 +10°C° 1 mm 1 m/S 704 mmHg 96%
20:00 +10°C° 1 mm 1 m/S 704 mmHg 96%
21:00 +8°C° 1 mm 0 m/S 705 mmHg 97%
22:00 +9°C° 1 mm 1 m/S 705 mmHg 96%
23:00 +9°C° 1 mm 1 m/S 705 mmHg 96%

5 Oktober, Montag

Zeit Temperatur Niederschläge Wind Luftdruck Luftfeuchtigkeit
00:00 +9°C° 1 mm 1 m/S 705 mmHg 96%
01:00 +9°C° 0.1 mm 1 m/S 705 mmHg 96%
02:00 +9°C° 0.1 mm 1 m/S 705 mmHg 95%
03:00 +8°C° 0.1 mm 1 m/S 705 mmHg 94%
04:00 +8°C° 0 mm 1 m/S 705 mmHg 94%
05:00 +8°C° 0 mm 1 m/S 705 mmHg 94%
06:00 +7°C° 0 mm 2 m/S 706 mmHg 94%
07:00 +8°C° 0 mm 2 m/S 706 mmHg 91%
08:00 +10°C° 0 mm 3 m/S 706 mmHg 87%
09:00 +11°C° 0 mm 4 m/S 707 mmHg 83%
10:00 +12°C° 0.1 mm 4 m/S 707 mmHg 80%
11:00 +12°C° 0.1 mm 4 m/S 707 mmHg 76%
12:00 +13°C° 0.1 mm 5 m/S 707 mmHg 72%
13:00 +13°C° 0.1 mm 4 m/S 707 mmHg 72%
14:00 +13°C° 0.1 mm 4 m/S 707 mmHg 72%
15:00 +13°C° 0.1 mm 4 m/S 708 mmHg 72%
16:00 +12°C° 0.1 mm 4 m/S 708 mmHg 75%
17:00 +11°C° 0.1 mm 4 m/S 709 mmHg 77%
18:00 +10°C° 0.1 mm 4 m/S 709 mmHg 80%
19:00 +10°C° 0.1 mm 3 m/S 710 mmHg 82%
20:00 +9°C° 0.1 mm 3 m/S 710 mmHg 85%
21:00 +9°C° 0.1 mm 3 m/S 710 mmHg 88%
22:00 +9°C° 0.1 mm 3 m/S 710 mmHg 89%
23:00 +9°C° 0.1 mm 3 m/S 710 mmHg 89%

6 Oktober, Dienstag

Zeit Temperatur Niederschläge Wind Luftdruck Luftfeuchtigkeit
00:00 +9°C° 0.1 mm 3 m/S 710 mmHg 90%
01:00 +8°C° 0 mm 3 m/S 711 mmHg 91%
02:00 +8°C° 0 mm 3 m/S 711 mmHg 91%
03:00 +7°C° 0 mm 3 m/S 711 mmHg 92%
04:00 +7°C° 0 mm 3 m/S 711 mmHg 91%
05:00 +7°C° 0 mm 3 m/S 711 mmHg 90%
06:00 +5°C° 0 mm 3 m/S 711 mmHg 89%
07:00 +8°C° 0 mm 3 m/S 712 mmHg 83%
08:00 +10°C° 0 mm 4 m/S 712 mmHg 77%
09:00 +12°C° 0 mm 4 m/S 712 mmHg 71%
10:00 +13°C° 0 mm 4 m/S 711 mmHg 67%
11:00 +14°C° 0 mm 3 m/S 711 mmHg 63%
12:00 +16°C° 0 mm 3 m/S 711 mmHg 58%
13:00 +16°C° 0 mm 3 m/S 711 mmHg 60%
14:00 +16°C° 0 mm 3 m/S 710 mmHg 61%
15:00 +16°C° 0 mm 2 m/S 710 mmHg 62%
16:00 +13°C° 0.2 mm 3 m/S 710 mmHg 71%
17:00 +12°C° 0.2 mm 3 m/S 710 mmHg 79%
18:00 +11°C° 0.2 mm 3 m/S 710 mmHg 88%
19:00 +10°C° 0.1 mm 2 m/S 710 mmHg 89%
20:00 +10°C° 0.1 mm 2 m/S 710 mmHg 90%
21:00 +9°C° 0.1 mm 2 m/S 710 mmHg 91%
22:00 +9°C° 0.5 mm 2 m/S 710 mmHg 92%
23:00 +9°C° 0.5 mm 2 m/S 710 mmHg 92%
Mehr zeigen